轨道通信卫星FM08星 (ORBCOMM FM08)

导读 | 豆包AI

ORBCOMM FM 8是由ORBCOMM公司(ORB)于1997年12月23日发射的低轨通信卫星,属于ORBCOMM第一代低地球轨道卫星星座。该星座主要为全球用户提供机器对机器(M2M)、物联网数据通信服务,支持船舶跟踪、远程设备监控、资产追踪等应用。作为星座组网卫星之一,它补充了系统的全球覆盖能力,助力构建了早期全球窄带卫星通信网络,推动了天地一体化物联网通信基础设施的发展。

Basic Information
目录编号:
25112
目录名称:
ORBCOMM FM 8
国际标识:
1997-084A
轨道中心:
EARTH
卫星名称:
轨道通信卫星FM08星
卫星全名:
轨道通信卫星FM08星 (ORBCOMM FM08)
卫星状态:
在轨 (已飞行10308 天)
发射日期:
1997-12-23 UTC
国别 :
(ORB)
星等 :
--
Orbit Information
数据来源 国际轨道数据 AOE轨道数据
星历时间 2026-03-13T21:27:04+0800
13小时前
查看轨道信息
2026-03-13T10:00:00+0800
1天前
查看轨道信息
半长轴 7113.608km 7113.614km
偏心率 0.000733 0.0007432
轨道倾角 45.012° 45.012°
近地点辐角 192.866° 190.406°
升交点赤经 153.609° 155.905°
平近点角 167.200° 201.772°
近地点 730.256km 730.19km
远地点 740.686km 740.764km
周期 99.516分钟 99.517分钟
每日圈数 14.469979 14.469961
Detailed Information
固有亮度:
8
最大亮度:
6.9
平衡模式:
三轴稳定
覆盖范围:
全球
运营商:
轨道通信公司
运营商所在国:
美国
制造商(研发单位):
轨道ATK公司
制造商所在国:
美国
使用方式:
暂无
Satellite Introduction
轨道通信FM(Orbcomm FM)是一系列低地球轨道通信卫星,由美国卫星通信公司 Orbcomm运营。 截至2015年12月,已有63颗此类卫星绕地球运行。该卫星已退役。
2D Orbit Map
3D Orbit Map
Orbit Altitude Analysis Chart
Orbit Inclination Analysis Chart
Orbit Comprehensive Analysis Chart
View Comprehensive Chart